Hourly Data Report for May 18, 2017

All times are specified in Local Standard Time (LST). Add 1 hour to adjust for Daylight Saving Time where and when it is observed.

DAWSON
YUKON TERRITORY

64°03'39.076" N
139°07'36.000" W
370.00 m
2100LRP
71966
WON

Download Data

Hourly Data (May 2017)
Hourly Data Report for May 18, 2017
Temp Definition
°C
Dew Point Temp Definition
°C
Rel Hum Definition
%
Wind Dir Definition
10's deg

Wind Spd Definition
km/h
Visibility Definition
km
Stn Press Definition
kPa
Hmdx Definition


Wind Chill Definition


Weather Definition


TIME
00:00 11.0 1.7 53 17 2   96.30     LegendNANA
01:00 8.6 1.9 63 22 4   96.35     LegendNANA
02:00 6.9 2.9 76 8 6   96.39     LegendNANA
03:00 6.6 2.3 74 4 2   96.43     LegendNANA
04:00 5.1 1.1 75 7 4   96.49     LegendNANA
05:00 3.5 0.8 82 30 2   96.53     LegendNANA
06:00 6.1 1.1 71 4 3   96.57     LegendNANA
07:00 6.3 1.7 72   0   96.60     LegendNANA
08:00 9.1 2.3 63 10 4   96.61     LegendNANA
09:00 11.4 2.1 53 18 1   96.60     LegendNANA
10:00 15.2 -0.7 34 17 5   96.58     LegendNANA
11:00 16.1 -2.5 28 21 5   96.53     LegendNANA
12:00 16.1 -2.7 27 25 8   96.51     LegendNANA
13:00 18.2 -3.4 23 24 9   96.47     LegendNANA
14:00 19.0 -5.5 18 23 13   96.43     LegendNANA
15:00 18.8 -8.1 15 24 11   96.41     LegendNANA
16:00 18.3 -5.5 19 22 6   96.38     LegendNANA
17:00 18.0 -6.8 18 25 4   96.37     LegendNANA
18:00 18.2 -6.2 18 27 6   96.34     LegendNANA
19:00 19.5 -7.2 16 28 5   96.31     LegendNANA
20:00 18.0 -5.9 19 27 5   96.32     LegendNANA
21:00 14.5 -2.1 32 0 1   96.32     LegendNANA
22:00 13.0 -0.2 40 0 1   96.35     LegendNANA
23:00 10.7 2.1 55 14 2   96.40     LegendNANA

Notes on Data Quality.

Legend

  • E = Estimated
  • M = Missing
  • NA = Not Available
  • ‡ = Partner data that is not subject to review by the National Climate Archives
Date modified: